CW9346 Weather Reports


time (UTC)temp
C
wind
direction
speed
KPH
gust
KPH
rain 1hr
cm
rain 24hr
cm
rain mn
cm
humidity
%
barometer
mb
20260504201519 24 288 0.0 3.2 0.00 0.00 0.00 33 1007.0
20260504200014 25 110 0.0 6.4 0.00 0.00 0.00 35 1007.3
20260504194510 24 112 0.0 9.7 0.00 0.00 0.00 35 1007.3
20260504193028 25 118 0.0 1.6 0.00 0.00 0.00 34 1007.6
20260504191524 24 121 0.0 3.2 0.00 0.00 0.00 35 1007.9
20260504190010 24 115 0.0 6.4 0.00 0.00 0.00 35 1008.3
20260504184502 24 117 0.0 6.4 0.00 0.00 0.00 35 1008.4
20260504183048 23 58 0.0 6.4 0.00 0.00 0.00 37 1008.6
20260504181541 23 67 0.0 6.4 0.00 0.00 0.00 36 1008.9
20260504180036 23 36 0.0 6.4 0.00 0.00 0.00 38 1009.2
20260504174533 23 89 0.0 1.6 0.00 0.00 0.00 37 1009.5
20260504173017 22 150 0.0 6.4 0.00 0.00 0.00 38 1009.7
20260504171513 22 117 0.0 6.4 0.00 0.00 0.00 39 1009.8
20260504081542 8 275 0.0 0.0 0.00 0.00 0.00 73 1012.5
20260504044517 8 275 0.0 0.0 0.00 0.00 0.00 60 1013.1
20260504043010 8 275 0.0 0.0 0.00 0.00 0.00 59 1013.0
20260504041551 8 275 0.0 0.0 0.00 0.00 0.00 58 1013.1
20260504040055 8 275 0.0 0.0 0.00 0.00 0.00 58 1013.0
20260504034544 8 275 0.0 0.0 0.00 0.00 0.00 57 1013.1
20260504033021 8 275 0.0 0.0 0.00 0.00 0.00 58 1013.0
20260504031513 9 275 0.0 0.0 0.00 0.00 0.00 57 1012.8
20260504030011 9 275 0.0 0.0 0.00 0.00 0.00 56 1012.8
20260504024505 10 275 0.0 0.0 0.00 0.00 0.00 56 1012.6
20260504023039 10 275 0.0 0.0 0.00 0.00 0.00 55 1012.6
20260504021535 10 275 0.0 0.0 0.00 0.00 0.00 52 1012.5
20260504020030 10 275 0.0 0.0 0.00 0.00 0.00 50 1012.5
20260504014540 11 275 0.0 0.0 0.00 0.00 0.00 52 1012.3
20260504013014 11 275 0.0 0.0 0.00 0.00 0.00 50 1012.2
20260504011511 12 275 0.0 0.0 0.00 0.00 0.00 47 1012.2
20260504010115 12 275 0.0 0.0 0.00 0.00 0.00 45 1012.1
20260504004548 12 275 0.0 0.0 0.00 0.00 0.00 42 1012.0
20260504003043 13 275 0.0 0.0 0.00 0.00 0.00 40 1011.9
20260504001544 13 275 0.0 0.0 0.00 0.00 0.00 39 1011.9
20260504000041 14 275 0.0 0.0 0.00 0.00 0.00 38 1011.7
20260503234524 15 275 0.0 0.0 0.00 0.00 0.00 38 1011.6
20260503233019 15 275 0.0 0.0 0.00 0.00 0.00 36 1011.5
20260503231509 15 275 0.0 0.0 0.00 0.00 0.00 34 1011.3
20260503230100 16 273 0.0 3.2 0.00 0.00 0.00 33 1011.3
20260503230002 16 273 0.0 3.2 0.00 0.00 0.00 32 1011.3
20260503224556 16 111 0.0 0.0 0.00 0.00 0.00 35 1011.4
20260503223046 16 111 0.0 0.0 0.00 0.00 0.00 34 1011.4
20260503221548 16 331 0.0 6.4 0.00 0.00 0.00 31 1011.4
20260503220032 16 325 0.0 6.4 0.00 0.00 0.00 33 1011.4
20260503214524 16 59 0.0 6.4 0.00 0.00 0.00 32 1011.5
20260503213017 16 335 0.0 3.2 0.00 0.00 0.00 31 1011.7
20260503211506 16 287 0.0 9.7 0.00 0.00 0.00 30 1011.5
20260503210100 16 329 0.0 6.4 0.00 0.00 0.00 33 1011.7
20260503204601 16 260 0.0 8.0 0.00 0.00 0.00 33 1011.8
20260503203039 17 282 0.0 8.0 0.00 0.00 0.00 35 1011.8